パンスターズ彗星

C/2018 F4 ( PanSTARRS )

English version
Home page
Updated on May 20, 2019

---------------------------------------------------------------------

・ プロフィール

発見日 2018年3月17日
発見光度 20.4等
発見者 Pan-STARRS 1 telescope (Haleakala)

・ 写真集

・ 軌道要素

Epoch 2019 Dec. 23.0 TT = JDT 2458840.5
T 2019 Dec. 4.09981 TT                                  MPCW
q   3.4397798            (2000.0)            P               Q
z  -0.0004250      Peri.  263.21389     -0.01434068     +0.89948343
 +/-0.0000022      Node    26.50745     +0.16997351     +0.43260054
e   1.0014618      Incl.   78.09819     -0.98534428     +0.06153325
From 229 observations 2018 Mar. 17-2019 May 10, mean residual 0".5.

・ 星図

・ 光度変化

        m1 = -4.5 + 5 logΔ + 25   log r  [    ,-610]  (              〜2018年 4月 3日)
        m1 =  7.5 + 5 logΔ + 10.0 log r  [-610,    ]  (2018年 4月 3日〜              )

---------------------------------------------------------------------

軌道要素はM.P.E.C. 2019-J142に掲載されたものです。
星図はステラナビゲータ Ver.10 (アストロアーツ) で作成したものです。
光度グラフはComet for Windowsで作成したものです。

---------------------------------------------------------------------

Copyright(C) Seiichi Yoshida (comet@aerith.net). All rights reserved.